Caldwell, NJ

8:43 PM EST on February 09, 2016 (GMT -0500)
Essex County

Weather History for KCDW - February, 2013

Change the Weather History Date:

Sunday, February 3, 2013

  Actual Average Record
Temperature  
Mean Temperature 24 °F -  
Max Temperature 30 °F 40 °F 116 °F (1998)
Min Temperature 19 °F 21 °F -7 °F (1955)
Degree Days  
Heating Degree Days 40    
Moisture  
Dew Point 18 °F    
Average Humidity 75    
Maximum Humidity 93    
Minimum Humidity 54    
Precipitation  
Precipitation 0.01 in - - ()
Sea Level Pressure  
Sea Level Pressure 29.91 in    
Wind  
Wind Speed 2 mph (WNW)    
Max Wind Speed 9 mph    
Max Gust Speed -    
Visibility 8 miles    
Events Snow    
Averages and records for this station are not official NWS values.
T = Trace of Precipitation, MM = Missing Value Source: NWS Daily Summary

Daily Weather History Graph

Daily Weather History Graph

Search for Another Location

Airport or City:

Trip Planner

Search our weather history database for the weather conditions in past years. The results will help you decide how hot, cold, wet, or windy it might be!

Date:

Astronomy

Feb. 03, 2013 Rise Set
Actual Time 7:05 AM EST 5:17 PM EST
Civil Twilight 6:36 AM EST 5:46 PM EST
Nautical Twilight 6:03 AM EST 6:18 PM EST
Astronomical Twilight 5:31 AM EST 6:51 PM EST
Moon 12:30 AM EST (2/3) 10:52 AM EST (2/3)
Length of Visible Light 11h 09m
Length of Day
10h 12m
Waning Gibbous, 49% of the Moon is Illuminated
Feb 3
Waning Gibbous
Feb 10
New
Feb 17
First Quarter
Feb 25
Full
Mar 4
Last Quarter

Hourly Weather History & Observations

Time (EST) Temp. Windchill Dew Point Humidity Pressure Visibility Wind Dir Wind Speed Gust Speed Precip Events Conditions
12:53 AM 23.0 °F - 19.9 °F 88% 30.06 in 2.5 mi Calm Calm - 0.00 in Snow Light Snow
1:17 AM 23.0 °F - 19.4 °F 86% 30.03 in 3.0 mi Calm Calm - 0.00 in Snow Light Snow
1:53 AM 23.0 °F - 19.9 °F 88% 30.04 in 2.5 mi Calm Calm - 0.00 in Snow Light Snow
2:01 AM 23.0 °F - 19.4 °F 86% 30.02 in 4.0 mi Calm Calm - 0.00 in Snow Light Snow
2:53 AM 19.9 °F - 18.0 °F 92% 30.02 in 8.0 mi Calm Calm - 0.01 in   Mostly Cloudy
3:53 AM 21.0 °F - 19.0 °F 92% 29.99 in 6.0 mi Calm Calm - N/A   Mostly Cloudy
4:00 AM 19.4 °F - 17.6 °F 93% 29.97 in 5.0 mi Calm Calm - N/A   Mostly Cloudy
4:53 AM 21.9 °F - 19.9 °F 92% 29.98 in 7.0 mi Calm Calm - N/A   Overcast
5:53 AM 21.9 °F - 19.0 °F 89% 29.97 in 7.0 mi Calm Calm - N/A   Overcast
6:53 AM 21.9 °F - 19.0 °F 89% 29.98 in 7.0 mi Calm Calm - N/A   Overcast
7:53 AM 21.9 °F 15.7 °F 19.0 °F 89% 29.99 in 6.0 mi ENE 4.6 mph - N/A   Overcast
8:53 AM 23.0 °F 17.0 °F 18.0 °F 81% 29.99 in 9.0 mi Variable 4.6 mph - N/A   Overcast
9:27 AM 24.8 °F 19.1 °F 17.6 °F 74% 29.95 in 10.0 mi NE 4.6 mph - N/A   Scattered Clouds
9:53 AM 25.0 °F 19.3 °F 17.1 °F 72% 29.97 in 10.0 mi NE 4.6 mph - N/A   Mostly Cloudy
10:53 AM 27.0 °F 23.0 °F 17.1 °F 66% 29.95 in 10.0 mi Variable 3.5 mph - N/A   Overcast
11:27 AM 26.6 °F - 17.6 °F 69% 29.91 in 10.0 mi Calm Calm - N/A   Overcast
11:53 AM 27.0 °F 21.6 °F 18.0 °F 69% 29.91 in 10.0 mi Variable 4.6 mph - N/A   Overcast
12:06 PM 26.6 °F - 17.6 °F 69% 29.87 in 10.0 mi Calm Calm - N/A   Overcast
12:53 PM 28.0 °F - 17.1 °F 63% 29.87 in 10.0 mi Calm Calm - N/A   Overcast
1:50 PM 28.4 °F 20.4 °F 17.6 °F 64% 29.82 in 10.0 mi West 8.1 mph - N/A   Scattered Clouds
1:53 PM 28.0 °F 22.8 °F 17.1 °F 63% 29.84 in 10.0 mi West 4.6 mph - N/A   Partly Cloudy
2:28 PM 28.4 °F 23.3 °F 17.6 °F 64% 29.81 in 10.0 mi NW 4.6 mph - N/A   Mostly Cloudy
2:44 PM 30.2 °F 22.6 °F 17.6 °F 60% 29.81 in 10.0 mi West 8.1 mph - N/A   Scattered Clouds
2:53 PM 28.9 °F 21.9 °F 17.1 °F 61% 29.83 in 10.0 mi West 6.9 mph - N/A   Scattered Clouds
3:53 PM 30.0 °F 21.7 °F 15.1 °F 54% 29.83 in 10.0 mi NW 9.2 mph - N/A   Clear
4:53 PM 28.9 °F 21.9 °F 14.0 °F 54% 29.82 in 10.0 mi WNW 6.9 mph - N/A   Scattered Clouds
5:53 PM 27.0 °F 20.5 °F 14.0 °F 58% 29.83 in 10.0 mi WNW 5.8 mph - N/A   Clear
6:53 PM 26.1 °F - 15.1 °F 63% 29.84 in 10.0 mi Calm Calm - N/A   Clear
7:53 PM 24.1 °F - 16.0 °F 71% 29.85 in 10.0 mi Calm Calm - N/A   Clear
8:53 PM 23.0 °F - 16.0 °F 74% 29.86 in 10.0 mi Calm Calm - N/A   Clear
9:53 PM 21.9 °F - 17.1 °F 82% 29.85 in 8.0 mi Calm Calm - N/A   Clear
10:53 PM 21.9 °F - 17.1 °F 82% 29.84 in 7.0 mi Calm Calm - N/A   Overcast
11:53 PM 23.0 °F 18.4 °F 18.0 °F 81% 29.84 in 7.0 mi SSW 3.5 mph - N/A   Overcast